Hourly Data Report for December 12, 2017

All times are specified in Local Standard Time (LST). Add 1 hour to adjust for Daylight Saving Time where and when it is observed.

REVELSTOKE A
BRITISH COLUMBIA

50°58'00.000" N
118°11'00.000" W
444.70 m
1176745
71685
YRV

Download Data

Hourly Data (December 2017)
Hourly Data Report for December 12, 2017
Temp Definition
°C
Dew Point Temp Definition
°C
Rel Hum Definition
%
Wind Dir Definition
10's deg

Wind Spd Definition
km/h
Visibility Definition
km
Stn Press Definition
kPa
Hmdx Definition


Wind Chill Definition


Weather Definition


TIME
00:00 -2.6 -6.2 76 LegendMM 4 16.1 98.31   -4 LegendNANA
01:00 -2.5 -6.0 77 30 4 16.1 98.28   -4 LegendNANA
02:00 -2.4 -6.1 76 31 8 16.1 98.32   -6 LegendNANA
03:00 -2.5 -6.0 77   0 16.1 98.25     LegendNANA
04:00 -2.6 -5.9 78 31 5 16.1 98.17   -5 LegendNANA
05:00 -2.3 -5.6 78 34 5 16.1 98.15   -4 LegendNANA
06:00 -2.7 -6.0 78 32 8 16.1 98.07   -6 LegendNANA
07:00 -2.4 -5.7 78 35 5 16.1 98.08   -4 LegendNANA
08:00 -1.9 -5.0 79 LegendMM 4 16.1 98.12   -3 LegendNANA
09:00 -2.1 -5.2 79 29 5 16.1 98.15   -4 LegendNANA
10:00 -1.9 -5.2 78   0 16.1 98.17     LegendNANA
11:00 -1.5 -5.0 77   0 16.1 98.18     LegendNANA
12:00 -1.0 -4.9 75 30 5 16.1 98.14   -3 LegendNANA
13:00 -0.7 -4.8 74   0 16.1 98.08     LegendNANA
14:00 -0.6 -4.9 73 34 5 16.1 98.01   -2 LegendNANA
15:00 -0.7 -4.7 74 31 4 16.1 98.04   -2 LegendNANA
16:00 -0.7 -4.4 76 LegendMM 4 16.1 98.05   -2 LegendNANA
17:00 -0.8 -3.8 80   0 16.1 98.08     LegendNANA
18:00 -0.9 -3.4 83   0 16.1 98.09     LegendNANA
19:00 -0.9 -3.8 81 1 5 16.1 98.12   -3 LegendNANA
20:00 -0.9 -4.6 76 31 5 16.1 98.13   -3 LegendNANA
21:00 -1.1 -4.4 78 34 5 16.1 98.11   -3 LegendNANA
22:00 -1.2 -3.7 83   0 12.9 98.10     LegendNANA
23:00 -1.3 -4.2 81 16 4 16.1 98.03   -3 LegendNANA

Notes on Data Quality.

Legend

  • E = Estimated
  • M = Missing
  • NA = Not Available
Date modified: